Regional Weather Roundup
Issued by NWS Upton, NY

Current Version | Previous Version | Graphics & Text | Print | Product List | Glossary Off
Versions: 1 2 3 4 5 6 7 8 9 10 11 12 13 14 15 16 17 18 19 20 21 22 23 24 25 26 27 28 29 30 31 32 33 34 35 36 37 38 39 40 41 42 43 44 45 46 47 48 49 50

000
ASUS41 KOKX 030304
RWROKX

REGIONAL WEATHER ROUNDUP
NATIONAL WEATHER SERVICE NEW YORK NY
1100 PM EDT WED SEP 02 2015

NOTE: "FAIR" INDICATES FEW OR NO CLOUDS BELOW 12,000 FEET WITH NO
SIGNIFICANT WEATHER AND/OR OBSTRUCTIONS TO VISIBILITY.

NYZ071-072-176-178-NJZ106-104-030400-
NEW YORK CITY METRO AREA


CITY           SKY/WX    TMP DP  RH WIND       PRES   REMARKS
CENTRAL PARK   CLEAR     78  69  73 CALM      29.93S
LAGUARDIA APRT PTCLDY    78  71  79 S6        29.89S
KENNEDY INTL   PTCLDY    77  72  84 S8        29.91F
NEWARK/LIBERTY PTCLDY    79  71  76 CALM      29.90R
BRNX BOT. GARD   N/A     75  70  83 CALM      29.92S
TETERBORO      CLEAR     78  67  68 S3        29.89R
$$

NYZ177-179-078>081-030400-
LONG ISLAND NEW YORK

CITY           SKY/WX    TMP DP  RH WIND       PRES   REMARKS
FARMINGDALE    CLEAR     76  68  76 SW5       29.91S
ISLIP          PTCLDY    75  66  73 S6        29.89F
SHIRLEY        CLEAR     74  67  78 SW6       29.91F
WESTHAMPTON    CLEAR     72  70  93 S5        29.92F
MONTAUK POINT    N/A     74  69  85 SW5       29.92F
$$

NYZ052-065-067-030400-
HUDSON VALLEY

CITY           SKY/WX    TMP DP  RH WIND       PRES   REMARKS
WHITE PLAINS   CLEAR     70  65  84 CALM      29.91S
NEWBURGH       CLEAR     75  66  73 CALM      29.92S
MONTGOMERY     CLEAR     69  65  86 CALM      29.91R
POUGHKEEPSIE   CLEAR     71  66  84 CALM      29.89S
ALBANY         PTCLDY    75  65  70 CALM      29.89S
$$

NJZ001-105-106-008-010-013-015-019>022-104-030400-
NEW JERSEY

CITY           SKY/WX    TMP DP  RH WIND       PRES   REMARKS
NEWARK/LIBERTY PTCLDY    79  71  76 CALM      29.90R
TETERBORO      CLEAR     78  67  68 S3        29.89R
CALDWELL       CLEAR     74  67  78 CALM      29.91R
MORRISTOWN     CLEAR     68  61  77 CALM      29.91S
SOMERVILLE     CLEAR     70  66  87 CALM      29.89R
SUSSEX         CLEAR     68  65  90 CALM      29.93R
ANDOVER          N/A     67  66  97 CALM      29.94R
TRENTON        CLEAR     78  71  79 CALM      29.90S
MILLVILLE      CLEAR     71  69  93 CALM      29.92S FOG
ATLANTIC CITY  CLEAR     75  72  90 CALM      29.91F
WRIGHTSTOWN    CLEAR     73  73  99 SW5       29.88F
TOMS RIVER     MOCLDY    73  72  94 SW3       29.91F
BELMAR         PTCLDY    75  68  78 SW5       29.91S
$$

PAZ047>061-062-071-030400-
EASTERN PENNSYLVANIA

CITY           SKY/WX    TMP DP  RH WIND       PRES   REMARKS
PHILADELPHIA   CLEAR     78  68  71 S7        29.92R
ALLENTOWN      CLEAR     72  65  78 CALM      29.93R
SCRANTON       CLEAR     72  63  73 E6        29.97R
$$

CTZ002-004>006-009-010-012-RIZ004-006-007-MAZ004-011-015-030400-
SOUTHERN NEW ENGLAND
 IN CT

CITY           SKY/WX    TMP DP  RH WIND       PRES   REMARKS
BRADLEY INTL   CLEAR     74  65  73 SW5       29.88S
HARTFORD       CLEAR     74  65  73 S6        29.88F
DANBURY        CLEAR     69  63  81 SW3       29.92F
WTRBRY/OXFORD  CLEAR     70  61  73 CALM      29.94S
BRIDGEPORT     CLEAR     78  67  68 SW7       29.89F
MERIDEN        CLEAR     70  64  81 CALM      29.90S
NEW HAVEN      CLEAR     75  67  76 SW6       29.90F
CHESTER        NOT AVBL
GROTON         CLEAR     72  68  87 SW6       29.89F
WILLIMANTIC    CLEAR     71  64  78 CALM      29.90F

 IN RI

CITY           SKY/WX    TMP DP  RH WIND       PRES   REMARKS
PROVIDENCE     CLEAR     73  63  70 SW6       29.89F
BLOCK ISLAND   CLEAR     72  70  94 W12       29.91S
WESTERLY       CLEAR     73  67  81 SW5       29.91F

 IN MA

CITY           SKY/WX    TMP DP  RH WIND       PRES   REMARKS
BOSTON         CLEAR     76  67  73 SW9       29.86F
WORCESTER      CLEAR     72  63  73 W9        29.92S
WESTFIELD      CLEAR     68  66  93 S3        29.88F
PROVINCETOWN     N/A     70  61  73 SW9       29.88S
NANTUCKET        N/A    N/A N/A N/A MISG      29.91S
$$

ANZ330-335-338-340-345-350-353-355-030400-
COASTAL MARINE OBSERVATIONS


STATION/POSITION TIME  SKY/WX   TEMP    WIND        PRES    VSBY  WAVE
                                AIR SEA DIR/SP/G                  HT/PER
                 (UTC)          (F)     (DEG/KT/KT) (MB)    (MI)  (FT/S)
NY HARB ENTRANCE 0150            77 77  190/ 10/ 12 1012.2          2/ 4
4S FIRE IS       NOT AVBL
20S FIRE ISLAND  0150            76 75  200/  8/ 10 1012.6          2/ 8
GREAT SOUTH BAY  0200            77 79  240/ 10/ 12   N/A
23SW MTP         0250            74 73  220/  8/  8 1012.5          2/ 9
HUDSON CANYON    NOT AVBL
KINGS POINT      0200            77 75  190/  9/ 10 1011.8
EXECUTION ROCKS  0200            77     190/ 10/ 12   N/A
CENTRAL LI SOUND NOT AVBL
EASTERN LI SOUND 0200            73 71  250/  4/  6   N/A
ROBBINS REEF     0200            78     160/  7/  8 1011.3
$$


>>>>>>>>>>>>>>>>>>>>>>>>>>>> KEY <<<<<<<<<<<<<<<<<<<<<<<<<<<
>                                                          <
>     SKY/WX - SKY CONDITION/PRESENT WEATHER               <
>     TMP    - TEMPERATURE IN FAHRENHEIT                   <
>     DP     - DEWPOINT IN FAHRENHEIT                      <
>     RH     - RELATIVE HUMIDITY IN PERCENT                <
>     WIND   - DIRECTION AND SPEED IN MPH                  <
>     PRES   - MEAN SEA LEVEL PRESSURE IN INCHES OF HG     <
>     WCI    - WIND CHILL INDEX                            <
>     VSB    - VISIBILITY IN MILES                         <
>     HX     - HEAT INDEX                                  <
>     TC     - TEMPERATURE IN CELSIUS                      <
>     VRB    - VARIABLE WIND DIRECTION                     <
>                                                          <
>>>>>>>>>>>>>>>>>>>>>>>>>>>> KEY <<<<<<<<<<<<<<<<<<<<<<<<<<<




USA.gov is the U.S. government's official web portal to all federal, state and local government web resources and services.